This demonstration page uses our WeatherBlox Daily Observations layout. Learn more.

Left ArrowRight Arrow

34.74481, -87.66753

Hourly Observations for February 28, 2018

Temp ( °F °C ) Dew Point ( °F °C ) Humidity (%) Winds ( mph kmh ) Pressure ( in mb ) Visibility ( mi km ) Precip ( " mm )
12:53 am 00:53 Cloudy with Rain 54 12.2 50 10 87 87 SSE 9 15 30.11 1020 4 6 0.09 2.29
1:53 am 01:53 Cloudy with Heavy Rain 54 12.2 51 10.6 90 90 SSE 14 22 30.10 1019 3 5 0.21 5.33
2:29 am 02:29 Cloudy with Heavy Rain 54 12.2 51 10.6 90 90 SE 9 15 30.12 1020 3 4 0.23 5.84
2:40 am 02:40 Cloudy with Heavy Rain 54 12.2 50 10 87 87 SE 8 13 30.12 1020 3 5 0.28 7.11
2:53 am 02:53 Cloudy with Heavy Rain 53 11.7 50 10 89 89 SE 9 15 30.10 1019 3 4 0.37 9.40
3:12 am 03:12 Cloudy with Heavy Rain 53 11.7 50 10 89 89 E 8 13 30.09 1019 3 4 0.14 3.56
3:16 am 03:16 Cloudy with Heavy Rain 53 11.7 50 10 89 89 E 8 13 30.09 1019 3 4 0.17 4.32
3:37 am 03:37 Cloudy with Rain 53 11.7 50 10 89 89 E 10 17 30.06 1018 3 5 0.29 7.37
3:53 am 03:53 Cloudy with Heavy Rain 53 11.7 50 10 89 89 ESE 15 24 30.03 1017 4 6 0.34 8.64
4:11 am 04:11 Cloudy with Light Rain 53 11.7 50 10 89 89 ESE 14 22 30.03 1017 5 8 0.04 1.02
4:29 am 04:29 Cloudy with Light Rain 53 11.7 51 10.6 93 93 SE 14 22 30.03 1017 8 13 0.05 1.27
4:53 am 04:53 Cloudy 53 11.7 51 10.6 93 93 SE 15 24 30.00 1016 10 16 0.06 1.52
5:11 am 05:11 Cloudy with Light Rain 54 12.2 51 10.6 90 90 SSE 15 24 30.00 1016 10 16 0.00 0.03
5:44 am 05:44 Cloudy with Light Rain 54 12.2 51 10.6 90 90 SSE 13 20 30.00 1016 8 13 0.01 0.25
5:53 am 05:53 Cloudy with Light Rain 54 12.2 51 10.6 90 90 SSE 14 22 29.98 1015 8 13 0.01 0.25
6:53 am 06:53 Cloudy 56 13.3 53 11.7 90 90 S 8 13 29.97 1015 9 14 0.03 0.76
7:53 am 07:53 Cloudy with Rain 58 14.4 55 12.8 90 90 VRB 5 7 29.98 1015 3 4 0.03 0.76
8:03 am 08:03 Cloudy with Rain 58 14.4 55 12.8 90 90 N 6 9 30.00 1016 4 6 0.02 0.51
8:08 am 08:08 Cloudy with Heavy Rain 58 14.4 55 12.8 90 90 VRB 3 6 30.00 1016 2 3 0.05 1.27
8:17 am 08:17 Cloudy with Light Rain 59 15 55 12.8 87 87 N 6 9 30.00 1016 3 5 0.06 1.52
8:34 am 08:34 Cloudy with Heavy Rain 57 13.9 54 12.2 90 90 ESE 5 7 30.00 1016 2 3 0.10 2.54
8:42 am 08:42 Cloudy with Heavy Rain 57 13.9 55 12.8 93 93 SSE 5 7 30.00 1016 2 3 0.13 3.30
8:48 am 08:48 Cloudy with Light Rain 57 14 55 13 94 94 SSE 5 7 30.00 1016 3 4 0.14 3.56
8:53 am 08:53 Cloudy with Light Rain 58 14.4 55 12.8 90 90 SSE 5 7 29.98 1015 3 5 0.16 4.06
8:59 am 08:59 Cloudy with Rain 58 14.4 56 13.3 93 93 S 6 9 29.97 1015 2 3 0.02 0.51
9:04 am 09:04 Cloudy with Light Rain 58 14.4 56 13.3 93 93 VRB 5 7 30.00 1016 3 4 0.03 0.76
9:12 am 09:12 Cloudy with Light Rain 59 15 56 13.3 90 90 S 7 11 29.97 1015 5 8 0.03 0.76
9:53 am 09:53 Cloudy 60 15.6 57 13.9 90 90 Calm 29.97 1015 8 13 0.04 1.02
10:53 am 10:53 Cloudy 62 16.7 59 15 90 90 SW 3 6 29.96 1015 8 13 0.00 0.00
11:53 am 11:53 Cloudy with Light Rain 63 17.2 60 15.6 90 90 S 7 11 29.93 1014 5 8 0.01 0.25
12:09 pm 12:09 Cloudy 64 17.8 60 15.6 87 87 SSW 8 13 29.91 1013 7 11 0.00 0.03
12:53 pm 12:53 Cloudy 65 18.3 61 16.1 87 87 SSW 12 19 29.91 1013 10 16 0.00 0.03
1:53 pm 13:53 Cloudy 66 18.9 62 16.7 87 87 SSW 8 13 29.89 1012 9 14 0.00 0.03
2:28 pm 14:28 Mostly Cloudy 67 19.4 62 16.7 84 84 SSW 7 11 29.85 1011 9 14 0.00 0.00
2:41 pm 14:41 Mostly Cloudy 68 20 63 17.2 84 84 SSW 8 13 29.85 1011 9 14 0.00 0.00
2:53 pm 14:53 Mostly Cloudy 68 20 64 17.8 87 87 SW 7 11 29.88 1012 9 14 0.00 0.00
2:59 pm 14:59 Mostly Cloudy 69 20.6 64 17.8 84 84 NNW 7 11 29.85 1011 9 14 0.00 0.00
3:26 pm 15:26 Cloudy with Heavy Rain 66 18.9 60 15.6 81 81 N 3 6 29.85 1011 2 3 0.06 1.52
3:33 pm 15:33 Cloudy with Heavy Rain 65 18.3 60 15.6 84 84 Calm 29.85 1011 2 2 0.10 2.54
3:40 pm 15:40 Cloudy with Light Rain 66 18.9 60 15.6 81 81 Calm 29.85 1011 3 5 0.10 2.54
3:53 pm 15:53 Cloudy with Light Rain 65 18.3 61 16.1 87 87 Calm 29.86 1011 10 16 0.11 2.79
4:53 pm 16:53 Cloudy 64 17.8 61 16.1 90 90 E 5 7 29.86 1011 10 16 0.00 0.03
5:06 pm 17:06 Cloudy with Light Rain 64 17.8 61 16.1 90 90 ENE 3 6 29.85 1011 6 10 0.00 0.03
5:28 pm 17:28 Cloudy with Heavy Rain 63 17.2 60 15.6 90 90 NE 6 9 29.85 1011 2 3 0.17 4.32
5:36 pm 17:36 Cloudy with Heavy Rain 63 17.2 60 15.6 90 90 NNE 6 9 29.85 1011 2 3 0.29 7.37
5:53 pm 17:53 Cloudy with Heavy Rain 63 17.2 60 15.6 90 90 NE 7 11 29.87 1012 2 3 0.44 11.18
6:03 pm 18:03 Cloudy with Light Rain 63 17.2 60 15.6 90 90 NNE 6 9 29.88 1012 5 8 0.02 0.51
6:49 pm 18:49 Cloudy with Heavy Rain 63 17.2 60 15.6 90 90 NNE 6 9 29.90 1013 3 4 0.13 3.30
6:58 pm 18:58 Cloudy with Light Rain 63 17.2 60 15.6 90 90 N 6 9 29.88 1012 5 8 0.01 0.25
7:53 pm 19:53 Cloudy with Rain 62 16.7 59 15 90 90 VRB 5 7 29.91 1013 4 6 0.04 1.02
8:53 pm 20:53 Cloudy 61 16.1 58 14.4 90 90 VRB 3 6 29.89 1012 10 16 0.00 0.03
9:17 pm 21:17 Cloudy with Light Rain 61 16.1 58 14.4 90 90 E 9 15 29.85 1011 6 10 0.04 1.02
9:53 pm 21:53 Cloudy with Rain 61 16.1 58 14.4 90 90 E 7 11 29.85 1011 6 10 0.05 1.27
10:45 pm 22:45 Cloudy 60 15.6 57 13.9 90 90 VRB 6 9 29.83 1010 10 16 0.03 0.76
10:53 pm 22:53 Cloudy 60 15.6 56 13.3 86 86 E 15 24 29.83 1010 10 16 0.03 0.76
11:53 pm 23:53 Cloudy 60 15.6 55 12.8 84 84 ESE 14 22 29.81 1010 10 16 0.00 0.03

Powered by AerisWeather